Terminal Aerodrome Forecast
Issued by NWS

Current Version | Previous Version | Text Only | Print | Product List | Glossary Off
Versions: 1 2 3 4 5 6 7 8 9 10 11 12 13 14 15 16 17 18 19 20 21 22 23 24 25 26 27

000
FTUS41 KPBZ 252100 AAA
TAFHLG
TAF AMD
KHLG 252112Z 2521/2618 27008KT P6SM SCT040
     FM261100 03004KT P6SM -SN OVC050
     FM261500 06005KT 3SM -SN BR OVC015=

USA.gov is the U.S. government's official web portal to all federal, state and local government web resources and services.